Location: Aulagny
(45.1643°N, 4.3096°E)
Time: 05:14:24
(UTC+00:00)

CSL-04 Debris - Pass Details

Date: 21 October 2019
Orbit: 827 x 848 km, 99.0° (Epoch: 21 November)

Event Time Altitude Azimuth Distance (km) Brightness Sun altitude
Rises 17:55:28 0° 159° (SSE) 3,379 7.1 -12.5°
Reaches altitude 10° 17:57:49 10° 157° (SSE) 2,452 6.4 -13.0°
Maximum altitude 18:03:15 76° 73° (ENE) 872 4.1 -13.9°
Drops below altitude 10° 18:08:44 10° 348° (NNW) 2,480 6.8 -14.9°
Sets 18:11:07 0° 347° (NNW) 3,422 7.5 -15.3°
